Station PCGT2 - 8779748 - South Padre Island CGS, TX Image indicating link to RSS feed of recent meteorological observations for station PCGT2


Conditions at PCGT2 as of
(4:18 am CDT)
0918 GMT on 05/26/2024:
     

Click on the graph icon in the table below to see a time series plot of the last five days of that observation.

5-day plot - Wind Direction Wind Direction (WDIR): SE ( 140 deg true )
5-day plot - Wind Speed Wind Speed (WSPD): 9.9 kts
5-day plot - Wind Gust Wind Gust (GST): 12.0 kts
5-day plot - Atmospheric Pressure Atmospheric Pressure (PRES):29.67 in
5-day plot - Air Temperature Air Temperature (ATMP): 81.3 °F
5-day plot - Water Temperature Water Temperature (WTMP): 82.2 °F
5-day plot - Wind Speed at 10 Meters Wind Speed at 10 meters (WSPD10M): 9.7 kts
5-day plot - Wind Speed at 20 Meters Wind Speed at 20 meters (WSPD20M): 11.7 kts
5-day plot -  Wind Speed, Wind Gust and Atmospheric Pressure Combined plot of Wind Speed, Gust, and Air Pressure
Previous observations
TIME
(CDT)
5-day plot - Wind Direction
WDIR
 
5-day plot - Wind Speed
WSPD
kts
5-day plot - Wind Gust
GST
kts
5-day plot - Wave Height
WVHT
ft
5-day plot - Dominant Wave Period
DPD
sec
5-day plot - Average Wave Period
APD
sec
5-day plot - Mean Wave Direction
MWD
 
5-day plot - Atmospheric Pressure
PRES
in
5-day plot - Pressure Tendency
PTDY
in
5-day plot - Air Temperature
ATMP
°F
5-day plot - Water Temperature
WTMP
°F
5-day plot - Dew Point
DEWP
°F
5-day plot - Salinity
SAL
psu
5-day plot - Visibility
VIS
nmi
5-day plot - Tide (above MLLW)
TIDE
ft
2024-05-26 04:12 am SE 11.1 13.0----29.67- 81.3 82.2----
2024-05-26 04:06 am SE 11.1 15.9----29.67- 81.3 82.4----
2024-05-26 04:00 am SE 12.0 15.0----29.67-0.02 81.3 82.4----
2024-05-26 03:54 am SE 13.0 15.9----29.67- 81.5 82.4----
2024-05-26 03:48 am SE 12.0 15.9----29.67-- 82.4----
2024-05-26 03:42 am SE 13.0 15.9----29.67-- 82.6----
2024-05-26 03:36 am SE 14.0 17.1----29.67-- 82.6----
2024-05-26 03:30 am SE 12.0 15.0----29.67- 81.5 82.6----
2024-05-26 03:24 am SE 12.0 14.0----29.67- 81.3 82.8----
2024-05-26 03:18 am SE 12.0 14.0----29.67- 81.3 82.8----
2024-05-26 03:12 am SE 13.0 17.1----29.67- 81.3 82.8----
2024-05-26 03:06 amSSE 13.0 17.1----29.67- 81.5 82.8----
2024-05-26 03:00 am SE 14.0 17.1----29.67-0.03 81.5 82.9----
2024-05-26 02:54 am SE 14.0 15.9----29.67- 81.5 82.9----
2024-05-26 02:48 am SE 13.0 15.9----29.67- 81.3 82.9----
2024-05-26 02:42 am SE 12.0 15.0----29.67- 81.5 82.9----
2024-05-26 02:36 am SE 12.0 15.0----29.68- 81.5 83.1----
2024-05-26 02:30 am SE 13.0 15.0----29.68- 81.5 83.1----
2024-05-26 02:24 am SE 14.0 15.9----29.67- 81.7 83.1----
2024-05-26 02:18 am SE 13.0 15.9----29.67- 81.7 83.1----
2024-05-26 02:12 am SE 14.0 15.9----29.68- 81.7 83.3----
2024-05-26 02:06 am SE 13.0 15.9----29.68- 81.7 83.3----
2024-05-26 02:00 am SE 14.0 17.1----29.68-0.01 81.9 83.3----
2024-05-26 01:54 am SE 13.0 17.1----29.68- 81.7 83.3----
2024-05-26 01:48 am SE 14.0 18.1----29.68- 81.7 83.5----
2024-05-26 01:42 am SE 14.0 17.1----29.68- 81.7 83.5----
2024-05-26 01:36 am SE 14.0 17.1----29.68- 81.7 83.5----
2024-05-26 01:30 am SE 13.0 15.9----29.69- 81.7 83.5----
2024-05-26 01:24 am SE 14.0 15.9----29.69- 81.7 83.7----
2024-05-26 01:18 am SE 14.0 18.1----29.69- 81.7 83.7----
2024-05-26 01:12 am SE 15.0 18.1----29.68- 81.7 83.7----
2024-05-26 01:06 am SE 14.0 17.1----29.68- 81.7 83.7----
2024-05-26 01:00 am SE 13.0 15.9----29.69+0.00 81.7 83.7----
2024-05-26 12:54 am SE 14.0 17.1----29.69- 81.7 83.7----
2024-05-26 12:48 am SE 14.0 17.1----29.68- 81.7 83.7----
2024-05-26 12:42 am SE 14.0 17.1----29.69- 81.9 83.7----
2024-05-26 12:36 am SE 14.0 15.0----29.69- 81.7 83.5----
2024-05-26 12:30 am SE 13.0 15.9----29.69- 81.9 83.7----
2024-05-26 12:24 am SE 13.0 15.9----29.70- 81.9 83.7----
2024-05-26 12:18 am SE 13.0 15.9----29.70- 81.9 83.5----
2024-05-26 12:12 am SE 14.0 17.1----29.70- 81.9 83.3----
2024-05-26 12:06 am SE 15.0 17.1----29.70- 81.9 83.5----
2024-05-26 12:00 am SE 14.0 17.1----29.70+0.03 81.9 83.5----
2024-05-25 11:54 pm SE 14.0 15.9----29.70- 81.9 83.1----
2024-05-25 11:48 pm SE 13.0 15.9----29.70- 82.0 83.3----
2024-05-25 11:42 pm SE 14.0 15.9----29.70- 82.0 83.3----
2024-05-25 11:36 pm SE 12.0 15.0----29.70- 82.0 83.3----
2024-05-25 11:30 pmESE 13.0 15.9----29.71- 82.0 83.3----
2024-05-25 11:24 pmESE 13.0 15.9----29.70- 82.0 83.3----
2024-05-25 11:18 pmESE 13.0 17.1----29.70- 82.0 83.1----
2024-05-25 11:12 pmESE 13.0 15.9----29.70- 82.0 83.3----
2024-05-25 11:06 pmESE 14.0 17.1----29.70- 82.0 83.3----
2024-05-25 11:00 pmESE 13.0 15.9----29.70+0.04 81.9 83.3----
2024-05-25 10:54 pmESE 14.0 15.9----29.70- 81.9 83.5----
2024-05-25 10:48 pmESE 13.0 15.9----29.70- 81.9 83.3----
2024-05-25 10:42 pmESE 13.0 15.0----29.70- 81.7 83.3----
2024-05-25 10:36 pmESE 14.0 15.9----29.69- 81.5 82.9----
2024-05-25 10:30 pmESE 12.0 15.0----29.69- 81.5 82.9----
2024-05-25 10:24 pmESE 12.0 15.0----29.69- 81.5 82.8----
2024-05-25 10:18 pm SE 12.0 15.9----29.70- 81.5 82.8----
2024-05-25 10:12 pm SE 12.0 15.0----29.70- 81.7 82.9----
2024-05-25 10:06 pm SE 12.0 15.0----29.69- 81.5 82.8----
2024-05-25 10:00 pmESE 13.0 15.0----29.69+0.04 81.5 82.6----
2024-05-25 09:54 pmESE 12.0 15.0----29.69- 81.5 82.8----
2024-05-25 09:48 pmESE 12.0 14.0----29.68- 81.5 82.8----
2024-05-25 09:42 pmESE 13.0 15.0----29.68- 81.5 82.6----
2024-05-25 09:36 pmESE 13.0 15.9----29.68- 81.5 82.6----
2024-05-25 09:30 pmESE 12.0 14.0----29.68- 81.5 82.8----
2024-05-25 09:24 pmESE 12.0 14.0----29.68- 81.5 82.8----
2024-05-25 09:18 pmESE 11.1 14.0----29.68- 81.5 82.8----
2024-05-25 09:12 pmESE 12.0 14.0----29.68- 81.7 82.8----
2024-05-25 09:06 pmESE 12.0 15.0----29.68- 81.5 82.6----
2024-05-25 09:00 pmESE 12.0 15.0----29.67+0.02 81.5 82.6----
2024-05-25 08:54 pmESE 12.0 14.0----29.67- 81.7 82.6----
2024-05-25 08:48 pmESE 12.0 14.0----29.67- 81.5 82.4----
2024-05-25 08:42 pmESE 12.0 15.0----29.67- 81.5 82.4----
2024-05-25 08:36 pmESE 12.0 14.0----29.66- 81.7 82.2----
2024-05-25 08:30 pmESE 12.0 15.0----29.67- 81.7 82.4----
2024-05-25 08:24 pmESE 12.0 14.0----29.67- 81.7 82.2----
2024-05-25 08:18 pmESE 12.0 14.0----29.66- 81.7 82.2----
2024-05-25 08:12 pmESE 11.1 14.0----29.66- 81.7 82.0----
2024-05-25 08:06 pmESE 12.0 14.0----29.66- 81.7 82.0----
2024-05-25 08:00 pmESE 11.1 14.0----29.66- 81.7 82.0----
2024-05-25 07:54 pmESE 12.0 15.0----29.65- 81.7 82.0----
2024-05-25 07:48 pmESE 13.0 15.9----29.65- 81.9 82.0----
2024-05-25 07:42 pmESE 12.0 15.0----29.65- 81.9 81.9----
2024-05-25 07:36 pmESE 12.0 15.0----29.65- 81.9 81.9----
2024-05-25 07:30 pmESE 13.0 15.9----29.64- 82.0 81.9----
2024-05-25 07:24 pmESE 13.0 15.0----29.64- 82.0 81.9----
2024-05-25 07:18 pmESE 12.0 14.0----29.65- 82.0 81.9----
2024-05-25 07:12 pmESE 12.0 15.0----29.65- 82.0 81.9----
2024-05-25 07:06 pmESE 12.0 14.0----29.65- 82.0 81.7----
2024-05-25 07:00 pmESE 12.0 17.1----29.65-0.03 82.2 81.7----
2024-05-25 06:54 pm SE 14.0 17.1----29.64- 82.2 81.5----
2024-05-25 06:48 pm-------29.65- 82.2 81.5----
2024-05-25 06:42 pm-------29.65- 82.2 81.3----
2024-05-25 06:36 pm-------29.65- 82.4 81.3----
2024-05-25 06:30 pmESE 13.0 15.0----29.65-- 81.3----
2024-05-25 06:24 pmESE 13.0 17.1----29.65-- 81.3----
2024-05-25 06:18 pmESE 13.0 17.1----29.65- 82.4 81.3----
2024-05-25 06:12 pmESE 14.0 18.1----29.65- 82.6 81.1----
2024-05-25 06:06 pmESE 14.0 17.1----29.65- 82.6 81.1----
2024-05-25 06:00 pmESE 15.0 18.1----29.65-0.04 82.4 81.0----
2024-05-25 05:54 pmESE 14.0 18.1----29.65- 82.6 81.0----
2024-05-25 05:48 pmESE 14.0 17.1----29.66-- 80.8----
2024-05-25 05:42 pmESE 14.0 17.1----29.66-- 80.8----
2024-05-25 05:36 pmESE 14.0 15.9----29.66-- 80.6----
2024-05-25 05:30 pmESE 15.0 17.1----29.66- 82.6 80.6----
2024-05-25 05:24 pmESE 14.0 18.1----29.66- 82.6 80.4----
2024-05-25 05:18 pmESE 14.0 18.1----29.67- 82.6 80.6----
2024-05-25 05:12 pmESE 15.0 19.0----29.67- 82.6 80.4----
2024-05-25 05:06 pmESE 14.0 15.9----29.67- 82.6 80.4----
2024-05-25 05:00 pmESE 14.0 17.1------ 82.8 80.2----
2024-05-25 04:54 pmESE 15.0 18.1------ 82.6 80.2----
2024-05-25 04:48 pmESE 15.0 19.0----29.67-- 80.1----
2024-05-25 04:42 pmESE 15.0 17.1----29.67-- 80.1----
2024-05-25 04:36 pmESE 15.0 19.0----29.67-- 79.9----
2024-05-25 04:30 pmESE 15.0 18.1----29.67- 82.8-----
2024-05-25 04:24 pmESE 15.0 18.1----29.67- 82.8-----
2024-05-25 04:18 pmESE 15.9 19.0----29.67- 82.8 80.1----
2024-05-25 04:12 pmESE 15.9 20.0----29.67- 82.8 79.9----
2024-05-25 04:06 pmESE 15.9 19.0----29.68- 82.9 79.7----
2024-05-25 04:00 pm SE 15.9 17.1----29.68-0.05 82.9 79.5----
2024-05-25 03:54 pmESE 15.0 17.1----29.68- 82.9 79.7----
2024-05-25 03:48 pmESE 15.0 19.0----29.68-- 79.5----
2024-05-25 03:42 pm SE 15.0 18.1----29.68-- 79.5----
2024-05-25 03:36 pm SE 15.0 20.0----29.69-- 79.5----
2024-05-25 03:30 pm SE 17.1 20.0----29.69- 82.9 79.3----
2024-05-25 03:24 pm SE 15.9 20.0----29.69- 82.9 79.3----
2024-05-25 03:18 pm SE 15.0 19.0----29.70- 82.9 79.3----
2024-05-25 03:12 pm SE 15.9 19.0----29.70- 82.8 79.3----
2024-05-25 03:06 pm SE 15.9 19.0----29.70- 82.8 79.3----
2024-05-25 03:00 pm-------29.70-0.05 82.9 79.2----
2024-05-25 02:54 pm-------29.70- 82.9 79.3----
2024-05-25 02:48 pm SE 18.1 21.0----29.70- 82.8 79.3----
2024-05-25 02:42 pm SE 17.1 19.0----29.70- 82.8 79.3----
2024-05-25 02:36 pm SE 15.9 20.0----29.70- 82.8 79.2----
2024-05-25 02:30 pm SE 17.1 20.0----29.70-- 79.0----
2024-05-25 02:24 pm SE 15.9 19.0----29.70-- 79.0----
2024-05-25 02:18 pm SE 17.1 20.0----29.71- 83.1 79.0----
2024-05-25 02:12 pm SE 15.9 20.0----29.71- 82.9 79.0----
2024-05-25 02:06 pm SE 15.9 19.0----29.71- 82.9 78.8----
2024-05-25 02:00 pm SE 15.0 18.1----29.71-0.04 82.9 79.2----
2024-05-25 01:54 pm SE 15.0 18.1----29.71- 83.1 79.5----
2024-05-25 01:48 pm SE 15.0 18.1----29.72- 82.9 79.9----
2024-05-25 01:42 pm SE 15.9 18.1----29.72- 82.9 79.9----
2024-05-25 01:36 pm SE 13.0 18.1----29.72- 82.8 80.1----
2024-05-25 01:30 pm SE 14.0 18.1----29.72- 82.8 79.9----
2024-05-25 01:24 pmESE 15.0 18.1----29.72- 82.9 79.9----
2024-05-25 01:18 pmESE 15.0 17.1----29.72- 82.8 80.2----
2024-05-25 01:12 pmESE 15.0 18.1----29.72- 82.8 80.2----
2024-05-25 01:06 pmESE 13.0 15.9----29.73- 82.9 80.2----
2024-05-25 01:00 pmESE 15.0 18.1----29.73-0.03 82.9 80.2----
2024-05-25 12:54 pmESE 15.0 18.1----29.73- 82.8 80.2----
2024-05-25 12:48 pmESE 14.0 17.1----29.74-- 80.4----
2024-05-25 12:42 pmESE 14.0 17.1----29.74-- 80.8----
2024-05-25 12:36 pmESE 14.0 17.1----29.74-- 81.1----
2024-05-25 12:30 pmESE 13.0 15.9----29.74- 82.8 81.5----
2024-05-25 12:24 pmESE 14.0 18.1----29.74- 82.8 81.5----
2024-05-25 12:18 pmESE 13.0 17.1----29.75- 82.8 81.5----
2024-05-25 12:12 pmESE 14.0 18.1----29.75- 82.8 81.5----
2024-05-25 12:06 pmESE 14.0 17.1----29.75- 82.8 81.5----
2024-05-25 12:00 pmESE 15.0 18.1----29.75-0.01 82.8 81.5----
2024-05-25 11:54 amESE 13.0 17.1----29.75- 82.6 81.5----
2024-05-25 11:48 am SE 13.0 18.1----29.75- 82.6 81.5----
2024-05-25 11:42 am SE 15.0 17.1----29.75- 82.4 81.3----
2024-05-25 11:36 am SE 15.9 18.1----29.75- 82.4 81.0----
2024-05-25 11:30 am-------29.75- 82.4 80.6----
2024-05-25 11:24 am-------29.75- 82.2 80.6----
2024-05-25 11:18 am SE 15.0 17.1----29.75- 82.4 80.6----
2024-05-25 11:12 am SE 14.0 17.1----29.75- 82.4 80.6----
2024-05-25 11:06 am SE 15.9 19.0----29.76- 82.2 80.2----
2024-05-25 11:00 am SE 15.0 17.1----29.76+0.04 82.0 80.2----
2024-05-25 10:54 am SE 15.0 17.1----29.76- 82.0 80.1----
2024-05-25 10:48 am SE 15.0 18.1----29.76-- 79.7----
2024-05-25 10:42 am SE 15.9 17.1----29.76-- 79.2----
2024-05-25 10:36 am SE 14.0 17.1----29.76-- 79.2----
2024-05-25 10:30 am SE 13.0 17.1----29.76- 81.9 79.3----
2024-05-25 10:24 am SE 13.0 15.9----29.76- 81.9 79.5----
2024-05-25 10:18 am SE 14.0 15.9----29.76- 81.9 79.7----
2024-05-25 10:12 am SE 14.0 17.1----29.76- 81.7 79.7----
2024-05-25 10:06 am SE 14.0 18.1----29.76- 81.7 79.7----
2024-05-25 10:00 am SE 14.0 17.1----29.76+0.05 81.7 79.7----
2024-05-25 09:54 am SE 14.0 15.9----29.76- 81.5 79.5----
2024-05-25 09:48 am SE 14.0 18.1----29.75- 81.5 79.3----
2024-05-25 09:42 am SE 13.0 18.1----29.75- 81.3 79.2----
2024-05-25 09:36 am SE 14.0 17.1----29.75- 81.3 79.2----
2024-05-25 09:30 am SE 15.0 19.0----29.75- 81.1 79.3----
2024-05-25 09:24 am SE 14.0 17.1----29.75- 81.1 79.5----
2024-05-25 09:18 am SE 14.0 15.9----29.76- 81.0 79.5----
2024-05-25 09:12 am SE 13.0 15.0----29.75- 81.0 79.7----
2024-05-25 09:06 amESE 12.0 13.0----29.76- 81.0 79.5----
2024-05-25 09:00 amESE 12.0 15.0----29.76+0.06- 79.5----
2024-05-25 08:54 amESE 12.0 14.0----29.75-- 79.0----
2024-05-25 08:48 amESE 11.1 14.0----29.75-- 79.2----
2024-05-25 08:42 amESE 12.0 14.0----29.75-- 79.2----
2024-05-25 08:36 amESE 11.1 13.0----29.75-- 79.3----
2024-05-25 08:30 amESE 12.0 14.0----29.74- 80.4 79.5----
2024-05-25 08:24 amESE 11.1 13.0----29.74- 80.4 79.5----
2024-05-25 08:18 amESE 11.1 14.0----29.73- 80.2 79.5----
2024-05-25 08:12 amESE 12.0 14.0----29.72- 80.2 79.3----
2024-05-25 08:06 amESE 11.1 14.0----29.72- 80.1 79.0----
2024-05-25 08:00 amESE 11.1 13.0----29.72+0.04 80.1 78.3----
2024-05-25 07:54 amESE 9.9 12.0----29.72- 80.1 78.3----
2024-05-25 07:48 amESE 9.9 11.1----29.72-- 78.3----
2024-05-25 07:42 amESE 8.9 11.1----29.72-- 78.3----
2024-05-25 07:36 amESE 8.9 11.1----29.72-- 78.4----
2024-05-25 07:30 amESE 8.9 9.9----29.72- 79.9 78.4----
2024-05-25 07:24 amESE 8.9 9.9----29.72- 79.9 78.4----
2024-05-25 07:18 am SE 8.0 9.9----29.71- 79.9 78.6----
2024-05-25 07:12 am SE 7.0 8.9----29.71- 79.7 78.6----
2024-05-25 07:06 am SE 8.0 9.9----29.71- 79.7 78.6----
2024-05-25 07:00 am SE 8.0 11.1----29.71+0.02 79.7 78.8----
2024-05-25 06:54 am SE 9.9 12.0----29.70- 79.9 78.8----
2024-05-25 06:48 am SE 9.9 12.0----29.70- 79.9 78.8----
2024-05-25 06:42 am SE 9.9 12.0----29.70- 79.9 78.8----
2024-05-25 06:36 am SE 9.9 13.0----29.69- 79.9 79.0----
2024-05-25 06:30 am SE 9.9 12.0----29.69- 79.9 79.2----
2024-05-25 06:24 am SE 11.1 13.0----29.69- 79.9 79.3----
2024-05-25 06:18 am SE 11.1 12.0----29.70- 80.1 79.3----
2024-05-25 06:12 am SE 9.9 12.0----29.70- 80.1 79.5----
2024-05-25 06:06 am SE 9.9 12.0----29.70- 80.1 79.7----
2024-05-25 06:00 am SE 9.9 12.0----29.70+0.00 80.1 79.7----
2024-05-25 05:54 am SE 9.9 12.0----29.70- 80.2 79.9----
2024-05-25 05:48 am SE 9.9 12.0----29.70- 80.2 80.1----
2024-05-25 05:42 am SE 11.1 13.0----29.69- 80.2 80.2----
2024-05-25 05:36 am SE 11.1 13.0----29.69- 80.2 80.4----
2024-05-25 05:30 am-------29.69- 80.2 80.6----
2024-05-25 05:24 am-------29.69- 80.2 80.8----
2024-05-25 05:18 am SE 9.9 12.0----29.69- 80.2 81.0----
2024-05-25 05:12 am SE 11.1 13.0----29.69- 80.2 81.1----
2024-05-25 05:06 am SE 9.9 13.0----29.69- 80.4 81.3----
2024-05-25 05:00 am SE 11.1 12.0----29.69-0.03- 81.7----
2024-05-25 04:54 am SE 9.9 12.0----29.69-- 81.9----
2024-05-25 04:48 am SE 9.9 12.0----29.69- 80.2 82.0----
2024-05-25 04:42 am SE 11.1 13.0----29.69- 80.4 82.2----
2024-05-25 04:36 am SE 12.0 13.0----29.68- 80.4 82.2----
2024-05-25 04:30 am SE 11.1 13.0------ 80.6 82.2----
2024-05-25 04:24 am SE 11.1 13.0------ 80.6 82.2----
2024-05-25 04:18 am SE 11.1 14.0----29.69- 80.6 82.2----
2024-05-25 04:12 am SE 12.0 14.0----29.68- 80.8 82.2----
2024-05-25 04:06 am SE 12.0 15.0----29.69- 80.8 82.2----
2024-05-25 04:00 am SE 12.0 15.0----29.69-0.03- 82.2----
2024-05-25 03:54 am SE 13.0 15.0----29.68-- 82.2----